Location: Ku?niki
(51.4449°N, 17.8974°E)
Time: 07:03:23
(UTC+00:00)

N. Korean satellite - Visible Passes

Search period start: 24 January 2022 00:00
Search period end: 03 February 2022 00:00
Orbit: 447 x 491 km, 97.3° (Epoch: 23 January)

Date Brightness Start Highest point End Pass type
(mag) Time Alt. Az. Time Alt. Az. Time Alt. Az.
24 Jan 8.3 03:37:33 10° NNE 03:40:53 33° E 03:41:53 28° SE visible
24 Jan 7.7 05:10:56 10° N 05:13:53 24° WNW 05:15:57 15° WSW visible
25 Jan 9.5 03:09:03 10° NE 03:11:29 17° E 03:12:48 14° ESE visible
25 Jan 6.8 04:41:22 10° N 04:44:52 47° WNW 04:46:52 22° SW visible
26 Jan 6.6 04:12:04 10° NNE 04:15:44 82° ESE 04:17:47 24° S visible
26 Jan 8.5 05:46:53 10° NW 05:48:19 12° WNW 05:49:44 10° W visible
26 Jan 10.0 16:26:17 10° WSW 16:27:40 12° W 16:29:04 10° WNW visible
27 Jan 8.0 03:43:01 10° NNE 03:46:27 38° E 03:48:42 18° SSE visible
27 Jan 7.8 05:16:34 10° NNW 05:19:24 21° WNW 05:22:13 10° WSW visible
28 Jan 9.3 03:14:22 10° NE 03:17:02 19° E 03:19:39 10° SE visible
28 Jan 6.9 04:46:55 10° N 04:50:22 41° WNW 04:53:43 10° SW visible
29 Jan 6.4 04:17:32 10° NNE 04:21:12 87° WNW 04:24:41 11° SSW visible
29 Jan 8.6 05:52:51 10° NW 05:53:42 11° WNW 05:54:33 10° WNW visible
29 Jan 10.3 16:32:26 10° W 16:33:10 10° W 16:33:53 10° WNW visible
30 Jan 7.7 03:48:23 10° NNE 03:51:54 43° E 03:55:22 10° S visible
30 Jan 8.0 05:22:07 10° NNW 05:24:46 19° WNW 05:27:24 10° WSW visible
31 Jan 9.1 03:19:35 10° NE 03:22:27 21° E 03:25:19 10° SE visible
31 Jan 7.1 04:52:20 10° N 04:55:43 36° WNW 04:59:03 10° SW visible
01 Feb 10.0 02:51:52 10° ENE 02:52:53 11° E 02:53:55 10° ESE visible
01 Feb 6.4 04:22:52 10° N 04:26:31 75° WNW 04:30:08 10° SSW visible
02 Feb 7.4 03:53:38 10° NNE 03:57:12 50° E 04:00:43 10° S visible
02 Feb 8.1 05:27:34 10° NNW 05:30:00 17° WNW 05:32:26 10° WSW visible
